Denton, TX

7:19 AM CST on February 08, 2016 (GMT -0600)
Denton Municipal

Weather History for KDTO - March, 2013

Change the Weather History Date:

Monday, March 4, 2013

  Actual Average Record
Temperature  
Mean Temperature 70 °F -  
Max Temperature 87 °F 59 °F 87 °F (2013)
Min Temperature 51 °F 37 °F 18 °F (2002)
Cooling Degree Days 6    
Growing Degree Days 20 (Base 50)    
Moisture  
Dew Point 36 °F    
Average Humidity 37    
Maximum Humidity 63    
Minimum Humidity 13    
Precipitation  
Precipitation 0.00 in - - ()
Sea Level Pressure  
Sea Level Pressure 29.65 in    
Wind  
Wind Speed 16 mph (SW)    
Max Wind Speed 25 mph    
Max Gust Speed 37 mph    
Visibility 10 miles    
Events      
Averages and records for this station are not official NWS values.
T = Trace of Precipitation, MM = Missing Value Source: NWS Daily Summary

Daily Weather History Graph

Daily Weather History Graph

Search for Another Location

Airport or City:

Trip Planner

Search our weather history database for the weather conditions in past years. The results will help you decide how hot, cold, wet, or windy it might be!

Date:

Astronomy

Mar. 04, 2013 Rise Set
Actual Time 6:52 AM CST 6:28 PM CST
Civil Twilight 6:28 AM CST 6:53 PM CST
Nautical Twilight 5:59 AM CST 7:21 PM CST
Astronomical Twilight 5:30 AM CST 7:50 PM CST
Moon 12:51 AM CST (3/4) 11:24 AM CST (3/4)
Length of Visible Light 12h 25m
Length of Day
11h 35m
Waning Gibbous, 52% of the Moon is Illuminated
Mar 4
Waning Gibbous
Mar 4
Last Quarter
Mar 11
New
Mar 19
First Quarter
Mar 27
Full

Hourly Weather History & Observations

Time (CST) Temp. Dew Point Humidity Pressure Visibility Wind Dir Wind Speed Gust Speed Precip Events Conditions
12:53 AM 59.0 °F 37.9 °F 46% 29.72 in 10.0 mi South 21.9 mph 28.8 mph N/A   Clear
1:53 AM 57.9 °F 39.9 °F 51% 29.71 in 10.0 mi South 19.6 mph 26.5 mph N/A   Clear
2:53 AM 57.0 °F 39.0 °F 51% 29.70 in 10.0 mi South 18.4 mph 26.5 mph N/A   Clear
3:53 AM 55.9 °F 39.0 °F 53% 29.69 in 10.0 mi South 15.0 mph - N/A   Clear
4:53 AM 54.0 °F 39.0 °F 57% 29.70 in 10.0 mi South 12.7 mph - N/A   Clear
5:53 AM 54.0 °F 39.0 °F 57% 29.67 in 10.0 mi South 13.8 mph - N/A   Clear
6:53 AM 55.0 °F 39.9 °F 57% 29.67 in 10.0 mi South 15.0 mph - N/A   Clear
7:53 AM 55.9 °F 39.9 °F 55% 29.67 in 10.0 mi South 12.7 mph - N/A   Clear
8:53 AM 59.0 °F 39.9 °F 49% 29.67 in 10.0 mi SSW 16.1 mph 23.0 mph N/A   Clear
9:53 AM 64.9 °F 39.9 °F 40% 29.66 in 10.0 mi SSW 13.8 mph - N/A   Clear
10:53 AM 72.0 °F 36.0 °F 27% 29.65 in 10.0 mi SSW 15.0 mph - N/A   Clear
11:53 AM 80.1 °F 30.9 °F 17% 29.64 in 10.0 mi WSW 18.4 mph - N/A   Clear
12:53 PM 82.9 °F 30.0 °F 15% 29.60 in 10.0 mi WSW 13.8 mph - N/A   Clear
1:53 PM 84.9 °F 30.0 °F 14% 29.57 in 10.0 mi West 15.0 mph 23.0 mph N/A   Clear
2:53 PM 87.1 °F 30.0 °F 13% 29.57 in 10.0 mi SW 15.0 mph 24.2 mph N/A   Clear
3:53 PM 87.1 °F 30.0 °F 13% 29.55 in 10.0 mi WSW 11.5 mph 20.7 mph N/A   Clear
4:53 PM 86.0 °F 33.1 °F 15% 29.56 in 10.0 mi SSW 10.4 mph - N/A   Clear
5:53 PM 82.0 °F 33.1 °F 17% 29.57 in 10.0 mi SSW 9.2 mph - N/A   Clear
6:53 PM 75.0 °F 33.1 °F 22% 29.58 in 10.0 mi SSW 3.5 mph - N/A   Clear
7:53 PM 75.9 °F 33.1 °F 21% 29.60 in 10.0 mi SW 11.5 mph 18.4 mph N/A   Clear
8:53 PM 66.9 °F 37.9 °F 34% 29.65 in 10.0 mi North 11.5 mph - N/A   Clear
9:53 PM 64.0 °F 39.9 °F 41% 29.67 in 10.0 mi North 15.0 mph - N/A   Clear
10:53 PM 61.0 °F 42.1 °F 50% 29.75 in 10.0 mi North 25.3 mph 36.8 mph N/A   Clear
11:53 PM 51.1 °F 39.0 °F 63% 29.83 in 10.0 mi North 24.2 mph 35.7 mph N/A   Clear